Location: Unspecified
(43.8044°N, 11.0278°E)
Time: 07:15:03
(UTC+01:00)

CZ-3 Stage 3 - Visible Passes

Search period start: 24 March 2017 00:00
Search period end: 03 April 2017 01:00
Orbit: 399 x 34801 km, 30.6° (Epoch: 22 March)

Date Brightness Start Highest point End Pass type
(mag) Time Alt. Az. Time Alt. Az. Time Alt. Az.
24 Mar 9.0 02:26:37 10° W 04:16:09 30° W 08:31:54 10° WNW visible
24 Mar 8.1 22:24:58 10° WSW 00:41:42 70° SW 07:39:12 10° SSW visible
25 Mar 7.3 18:47:12 10° S 19:43:40 48° ESE 05:05:19 10° SE visible
26 Mar 7.9 18:54:33 10° ENE 23:01:52 21° E 00:47:16 10° E visible
27 Mar 9.0 03:17:18 10° W 05:05:55 30° W 09:19:06 10° WNW visible
27 Mar 8.1 23:15:57 10° WSW 01:30:15 70° SW 08:29:29 10° SSW visible
28 Mar 7.3 19:38:04 10° SSW 20:26:42 48° ESE 04:56:01 10° SE visible
29 Mar 7.8 18:48:10 10° ENE 22:52:44 21° E 00:37:19 10° E visible
30 Mar 9.0 03:07:58 10° W 04:55:39 30° W 09:06:14 10° WNW visible
30 Mar 8.1 23:06:54 10° WSW 01:18:44 70° SW 08:19:41 10° SSW visible
31 Mar 7.3 19:28:55 10° SSW 20:13:07 48° ESE 04:46:41 10° SE visible
01 Apr 7.8 18:42:24 10° ENE 22:43:35 20° E 00:27:19 10° E visible
02 Apr 9.0 02:58:37 10° W 04:45:20 30° W 08:53:20 10° WNW visible
